Temp
98 92 87 92 96 96 93 88 88 92 96 93 93 93 97 101 101 99 98 95 95 96 99 99 98 98 97 95 92 90 84 84 85 88 81 79 79 69 72 76 79 80 80 77
92 86 95 98 96 94 91 88 87 93 95 94 93 92 98 99 99 101 100 98 96 98 97 97 96 96 95 94 91 89 85 83 83 88 87 86 82 79 79 80 78 83 87 84
87 93 98 92 91 88 90 88 88 88 93 96 92 88 92 98 100 100 101 102 100 98 97 96 95 94 96 93 91 89 82 82 85 83 85 83 81 82 85 86 87 88 86 86
91 97 91 90 88 92 84 94 92 89 87 81 93 76 87 94 95 97 100 101 101 99 99 97 95 94 94 94 93 90 83 84 86 83 84 83 83 84 83 81 83 83 86 87
87 90 88 87 89 94 88 95 92 90 87 86 87 82 86 92 90 94 97 98 101 100 100 98 97 95 95 95 92 91 84 84 85 83 84 83 83 86 86 82 83 83 84 87
91 97 95 93 96 95 97 91 90 90 88 76 83 83 82 88 90 93 97 97 99 100 100 99 99 96 94 94 92 91 84 83 84 83 83 82 84 83 81 84 81 87 89 89
87 89 95 96 89 94 92 86 75 72 74 73 85 81 83 90 94 95 94 97 99 101 100 98 95 92 91 90 90 90 84 81 83 84 84 84 84 82 83 83 87 82 88 87
79 76 89 95 91 87 87 87 77 66 70 74 83 74 83 93 97 97 98 100 100 100 100 98 96 93 92 91 90 90 83 81 84 84 84 85 83 84 87 83 85 84 85 85
81 80 95 95 96 95 87 81 93 81 83 76 82 85 91 94 95 95 96 97 97 98 98 97 96 95 93 92 91 90 84 83 84 85 84 83 83 83 82 82 82 83 82 83
87 77 91 93 95 95 91 94 81 82 67 66 76 77 78 85 90 92 92 92 94 96 97 96 96 96 95 94 92 92 86 85 85 85 83 80 76 79 83 82 81 81 79 78
91 84 85 91 85 85 86 84 86 88 82 71 67 75 89 89 91 91 91 92 94 96 96 96 97 97 97 96 94 91 88 85 83 75 69 66 72 75 79 81 82 82 78 78
92 87 78 83 92 95 93 87 86 77 73 79 77 76 94 93 93 94 92 92 93 95 97 96 96 95 95 95 93 89 85 81 78 73 70 70 74 73 82 82 82 82 77 79
91 82 74 77 87 90 86 89 89 87 84 75 72 76 94 94 92 93 90 91 90 92 93 93 93 92 94 91 82 81 79 76 74 76 74 78 76 81 81 81 81 80 80 80
85 84 77 75 79 87 81 84 88 85 77 78 78 76 83 89 89 88 88 89 90 91 90 91 90 90 92 87 84 80 80 83 78 79 81 76 76 83 82 82 82 81 81 80
88 75 81 84 87 88 87 85 85 83 83 78 78 71 78 87 89 88 89 88 88 89 90 90 89 89 85 86 86 85 86 83 81 79 78 79 81 82 82 82 81 82 81 81
88 76 80 79 85 87 83 87 86 86 86 83 85 76 66 82 89 87 87 88 87 88 89 89 89 89 86 85 88 88 86 84 83 81 81 80 80 80 79 81 81 80 80 80
82 79 75 71 83 82 76 83 85 86 88 87 80 79 77 81 85 85 86 88 88 88 88 88 88 89 87 84 88 86 85 86 84 84 83 81 79 78 77 78 80 79 79 79
79 76 77 74 77 65 83 93 92 87 88 91 86 81 86 86 87 88 88 88 87 86 88 89 90 89 89 87 88 87 86 85 85 84 83 81 76 74 71 72 72 76 78 77
85 79 74 70 72 78 82 85 87 85 82 92 87 86 87 86 85 82 86 86 85 83 83 81 84 89 89 88 87 86 84 84 84 83 81 79 76 75 75 73 75 74 72 73
84 80 76 75 66 63 78 90 95 93 75 88 89 86 82 83 80 84 85 83 81 80 76 75 81 85 87 86 86 84 83 82 82 84 81 79 76 75 75 73 73 74 73 69
74 74 71 72 70 72 78 86 90 73 72 86 89 88 86 84 83 84 85 82 81 78 74 75 81 83 84 85 85 82 82 81 84 84 83 79 79 75 77 75 69 69 70 70
72 69 71 74 59 62 82 82 73 78 84 87 87 89 87 84 85 85 85 82 82 79 75 76 75 76 76 83 83 81 80 80 79 81 80 78 77 77 78 75 73 72 71 70
69 70 66 70 64 68 82 76 80 83 83 85 87 88 87 86 86 86 83 82 82 80 79 78 73 71 72 73 78 79 72 75 76 76 74 75 75 77 75 74 72 70 69 71
76 78 76 73 77 77 80 82 83 84 82 85 88 88 89 86 85 84 82 81 81 80 80 82 78 71 70 72 73 73 72 72 72 73 73 73 72 68 70 72 71 68 65 67
71 78 74 75 77 79 78 78 81 81 83 83 85 86 84 85 83 82 80 78 79 78 80 80 77 71 70 70 71 71 70 70 70 71 72 70 70 65 58 53 52 61 62 61
82 72 73 65 75 76 74 77 80 80 81 84 84 83 85 85 82 84 81 81 80 79 79 78 77 75 74 72 72 72 71 70 69 69 71 71 72 65 58 55 52 47 47 49
MSLP
1002.36 1001.94 1000.96 1000.26 1000.06 999.24 999.25 999.81 998.91 999.48 1000.17 1000.57 999.81 999.44 999.34 999.93 1000.78 1001.33 1002.55 1003.95 1005.00 1005.74 1006.54 1007.52 1008.34 1009.00 1009.57 1010.34 1011.25 1012.08 1013.24 1014.00 1014.27 1013.84 1014.41 1015.05 1015.28 1015.66 1015.76 1015.69 1015.58 1015.15 1015.38 1015.74
1002.03 1001.54 1000.83 1000.45 1000.34 999.86 1000.06 999.87 999.81 999.78 1000.46 1000.37 999.45 999.42 999.22 999.66 1000.22 1000.66 1001.44 1002.84 1004.26 1004.93 1005.98 1007.06 1008.10 1008.83 1009.42 1010.06 1011.03 1011.92 1012.89 1013.68 1014.23 1013.90 1013.99 1014.32 1015.02 1015.54 1015.51 1015.38 1015.50 1015.13 1014.71 1015.01
1001.57 1000.58 1000.61 1001.00 1000.83 1000.80 1000.43 1000.07 999.78 999.86 1000.03 1000.20 999.74 999.36 999.06 999.76 1000.13 1000.76 1001.38 1001.66 1002.96 1004.04 1004.99 1006.58 1007.58 1008.41 1009.07 1009.84 1010.77 1011.60 1012.98 1013.48 1013.63 1014.16 1014.24 1014.63 1015.11 1015.18 1014.68 1014.40 1014.47 1014.42 1014.72 1014.71
1001.35 1000.87 1001.31 1001.33 1001.10 1000.88 1000.36 1000.17 1000.18 999.97 1000.08 999.10 999.46 998.64 999.54 999.02 999.74 1000.22 1000.64 1001.08 1002.02 1003.42 1004.33 1005.80 1007.20 1008.14 1008.82 1009.59 1010.52 1011.27 1012.77 1013.00 1013.27 1013.91 1014.06 1014.12 1014.10 1013.94 1014.23 1014.59 1014.72 1014.84 1014.76 1014.53
1001.21 1001.01 1001.29 1001.12 1000.79 1000.76 1000.42 999.74 1000.18 1000.48 1000.18 999.68 999.00 998.98 998.59 999.32 999.42 999.70 1000.34 1001.18 1001.58 1002.74 1003.86 1005.34 1006.68 1007.74 1008.56 1009.36 1010.36 1011.02 1012.49 1012.82 1013.39 1013.79 1013.75 1014.13 1013.90 1013.61 1013.94 1014.38 1014.66 1014.88 1014.72 1014.48
1001.17 1001.25 1001.13 1000.86 1000.72 1000.72 1000.43 1000.80 1000.74 1000.72 1000.29 999.43 999.36 999.17 998.74 998.67 999.17 999.84 1000.66 1001.51 1001.80 1002.56 1003.78 1004.94 1006.35 1007.66 1008.50 1009.38 1010.23 1010.90 1012.16 1012.62 1013.24 1013.73 1013.84 1013.89 1013.58 1013.72 1013.84 1014.10 1014.46 1013.90 1014.01 1014.02
1001.34 1001.14 1001.17 1000.94 1000.53 1000.90 1000.74 1000.61 1000.32 1000.14 999.51 998.89 999.18 999.67 999.38 999.84 1000.14 1000.33 1000.92 1001.44 1002.07 1002.68 1003.63 1004.86 1006.22 1007.50 1008.42 1009.36 1010.16 1010.90 1011.93 1012.49 1013.01 1013.32 1013.55 1013.58 1013.70 1013.96 1013.96 1013.98 1013.79 1014.18 1013.73 1013.90
1000.10 1000.12 1000.48 1000.54 1000.37 1000.07 1000.53 1000.08 999.47 998.82 998.46 998.57 999.68 999.54 999.62 1000.08 1000.58 1001.11 1001.40 1001.56 1002.27 1002.88 1003.79 1004.86 1006.14 1007.32 1008.28 1009.16 1010.00 1010.70 1011.88 1012.42 1012.74 1013.03 1013.47 1013.59 1013.82 1013.79 1013.78 1014.37 1014.17 1014.30 1014.22 1014.57
999.52 999.42 999.33 1000.00 1000.20 1000.00 999.82 1000.12 999.81 999.49 999.39 999.50 998.95 999.31 999.88 1000.25 1000.49 1001.12 1001.48 1001.96 1002.61 1003.18 1003.95 1004.96 1006.08 1007.06 1007.96 1008.77 1009.56 1010.30 1011.69 1012.28 1012.70 1013.00 1013.35 1013.70 1013.93 1013.85 1013.92 1014.57 1014.85 1014.54 1015.09 1015.10
1000.06 999.80 999.36 999.84 1000.15 999.98 999.86 999.90 999.97 1000.07 999.62 999.09 998.80 998.81 999.25 1000.04 1000.34 1001.56 1002.10 1002.82 1003.49 1003.87 1004.49 1005.12 1005.90 1006.77 1007.70 1008.56 1009.56 1010.33 1011.66 1012.22 1012.57 1013.00 1013.49 1013.83 1014.12 1014.37 1014.50 1014.81 1015.04 1015.11 1015.58 1015.86
1000.64 1000.54 999.02 999.68 1000.11 999.62 1000.14 1000.01 999.68 999.30 999.38 998.74 998.90 998.35 998.86 999.86 1000.40 1001.43 1002.65 1003.33 1003.83 1004.17 1004.64 1005.30 1005.79 1006.63 1007.52 1008.48 1009.58 1010.52 1011.56 1012.44 1013.00 1014.20 1014.96 1015.07 1014.73 1014.83 1015.02 1015.19 1015.14 1015.38 1015.81 1016.01
1000.70 1000.36 999.77 999.46 999.64 999.83 999.28 999.46 1000.00 999.91 1000.04 1000.16 1000.15 1000.14 1000.01 1000.76 1001.19 1002.13 1003.18 1003.93 1004.34 1004.49 1004.74 1005.38 1005.94 1006.98 1007.50 1008.31 1009.46 1010.92 1011.94 1012.77 1013.84 1014.80 1015.31 1015.62 1015.50 1015.54 1015.08 1015.40 1015.47 1015.76 1016.26 1016.29
1000.72 1000.75 1000.18 999.80 999.30 999.96 999.73 999.72 999.59 999.90 1000.36 1000.22 1000.18 1000.22 1000.66 1001.21 1001.90 1002.72 1003.70 1004.40 1004.95 1005.14 1005.44 1005.95 1006.51 1007.28 1007.76 1008.74 1010.45 1011.79 1012.73 1013.48 1014.31 1014.86 1015.19 1015.18 1015.39 1014.96 1015.37 1015.56 1015.76 1016.02 1016.18 1016.30
1001.62 1000.74 1000.59 999.17 998.95 998.65 999.15 999.85 999.82 1000.02 1000.01 1000.19 1000.39 1001.51 1001.64 1001.83 1002.59 1003.57 1004.20 1004.80 1005.17 1005.46 1005.90 1006.38 1007.04 1007.60 1008.14 1009.46 1010.86 1012.07 1012.79 1013.22 1014.10 1014.38 1014.40 1014.75 1014.96 1014.88 1015.32 1015.52 1015.80 1015.98 1016.03 1016.22
1002.00 1001.65 1001.25 1000.27 999.65 998.81 998.22 998.87 999.36 999.61 1000.02 1000.05 1000.74 1002.28 1003.01 1002.88 1002.53 1003.75 1004.60 1005.21 1005.56 1005.85 1006.14 1006.67 1007.36 1007.98 1008.72 1009.64 1010.68 1011.76 1012.35 1013.24 1013.89 1014.16 1014.47 1014.48 1014.37 1014.84 1015.32 1015.55 1015.81 1016.02 1016.18 1016.42
1002.10 1001.86 1001.54 1000.43 999.99 999.35 999.04 998.67 998.69 999.16 999.60 1000.03 1000.67 1003.49 1004.02 1004.69 1003.69 1004.30 1005.07 1005.56 1005.95 1006.22 1006.32 1006.94 1007.51 1008.07 1008.80 1009.91 1010.30 1010.90 1011.99 1012.88 1013.33 1013.97 1014.16 1014.58 1014.69 1015.14 1015.53 1015.62 1015.91 1016.21 1016.36 1016.54
1002.05 1001.90 1001.69 1000.55 1000.00 999.56 998.92 998.76 998.56 999.08 999.38 999.91 1000.61 1003.23 1005.31 1005.42 1004.53 1005.14 1005.51 1005.80 1006.28 1006.72 1007.02 1007.40 1007.76 1008.17 1008.80 1009.90 1010.33 1011.19 1011.86 1012.58 1013.09 1013.39 1013.86 1014.44 1014.91 1015.28 1015.81 1015.92 1015.96 1016.14 1016.49 1016.67
1002.32 1002.34 1001.80 1000.77 1000.30 998.92 998.55 998.52 998.55 998.82 999.24 999.79 1001.28 1002.79 1003.40 1004.76 1005.17 1005.64 1006.16 1006.32 1007.00 1007.69 1007.85 1007.92 1008.02 1008.35 1008.88 1009.70 1010.45 1011.26 1011.90 1012.34 1012.72 1013.14 1013.74 1014.40 1015.04 1015.60 1016.13 1016.30 1016.57 1016.51 1016.63 1016.84
1002.52 1002.27 1001.53 1000.94 1000.04 999.04 998.58 998.87 998.60 998.55 999.26 999.58 1000.56 1002.68 1004.11 1004.72 1005.52 1006.28 1006.55 1007.38 1008.13 1008.72 1009.23 1009.54 1009.34 1008.70 1009.02 1009.58 1010.63 1011.12 1011.74 1012.14 1012.60 1013.02 1013.65 1014.40 1015.10 1015.46 1016.08 1016.42 1016.66 1016.90 1017.11 1017.38
1002.40 1002.57 1002.08 1000.80 1000.48 999.70 998.79 998.56 999.03 999.34 999.96 1000.69 1001.46 1002.79 1003.84 1004.28 1004.35 1004.99 1007.00 1007.34 1008.90 1009.77 1010.52 1010.67 1010.32 1009.68 1009.48 1010.20 1010.93 1011.36 1011.63 1012.20 1012.32 1012.64 1013.42 1014.29 1015.00 1015.37 1015.68 1016.21 1016.44 1016.82 1017.53 1017.94
1002.44 1002.39 1002.00 1001.47 1001.03 1001.30 1001.55 1001.36 1001.14 1000.57 1002.10 1002.23 1002.35 1002.96 1003.79 1004.06 1005.23 1006.70 1007.37 1008.26 1009.35 1010.37 1011.08 1011.14 1010.63 1010.10 1010.26 1010.79 1011.30 1011.64 1011.81 1011.98 1012.12 1012.34 1013.07 1013.97 1014.56 1015.07 1015.42 1016.00 1016.74 1017.09 1017.29 1017.49
1002.08 1002.50 1001.89 1001.80 1002.40 1002.95 1003.22 1002.82 1003.09 1003.72 1003.50 1003.11 1003.23 1003.78 1004.04 1005.22 1006.22 1006.65 1007.32 1008.58 1009.58 1010.38 1011.21 1011.51 1011.56 1011.70 1011.61 1011.52 1011.78 1011.85 1012.16 1012.52 1012.91 1012.90 1013.20 1013.89 1014.39 1014.78 1015.12 1015.74 1016.42 1016.98 1017.14 1017.37
1003.56 1004.05 1003.66 1004.05 1004.67 1006.61 1004.70 1004.92 1004.86 1005.07 1004.64 1004.60 1004.40 1004.54 1004.94 1005.77 1006.56 1007.53 1008.43 1009.18 1009.86 1010.51 1011.05 1011.44 1012.04 1012.45 1012.76 1012.69 1012.22 1012.20 1013.22 1013.43 1013.64 1013.65 1013.89 1014.16 1014.40 1014.47 1014.97 1015.39 1015.94 1016.65 1017.05 1016.99
1004.10 1004.39 1003.80 1004.45 1005.22 1006.08 1005.85 1005.62 1005.37 1006.04 1006.18 1005.70 1005.33 1005.42 1005.60 1006.20 1007.16 1008.01 1008.75 1009.54 1010.12 1010.83 1011.18 1011.16 1011.74 1012.76 1013.16 1013.33 1013.36 1013.38 1013.73 1014.04 1014.23 1014.06 1014.11 1014.46 1014.67 1015.04 1015.39 1015.61 1015.92 1016.34 1016.65 1016.87
1005.45 1004.73 1004.50 1004.51 1005.34 1005.58 1005.96 1006.26 1006.30 1006.62 1006.76 1006.60 1006.52 1006.54 1006.82 1006.87 1007.69 1008.52 1009.32 1010.04 1010.74 1011.12 1011.48 1011.60 1012.10 1012.93 1013.39 1013.65 1013.74 1014.07 1014.32 1014.52 1014.37 1014.44 1014.52 1014.88 1015.17 1015.75 1016.42 1017.18 1017.31 1016.78 1016.78 1016.84
1005.68 1006.15 1005.10 1006.33 1006.64 1006.53 1007.16 1007.60 1007.33 1007.03 1007.11 1007.22 1007.15 1007.24 1007.85 1007.74 1008.14 1008.67 1009.80 1010.31 1010.80 1011.22 1011.70 1011.75 1012.24 1012.61 1013.14 1013.56 1013.77 1014.04 1014.30 1014.55 1014.66 1014.72 1014.59 1014.62 1014.88 1015.96 1016.56 1017.20 1017.52 1017.49 1017.36 1017.44
Wind_Speed
14 13 16 20 19 21 14 11 8 2 5 9 12 12 8 13 7 10 13 15 14 15 15 14 13 11 11 10 9 9 9 6 5 5 5 3 2 2 2 2 6 6 6 13
7 15 19 20 11 9 10 10 10 6 2 9 7 10 10 2 7 7 13 15 16 16 15 14 13 12 11 11 9 8 7 8 5 4 2 3 2 4 6 3 5 8 9 8
15 9 19 6 10 11 14 15 12 9 8 11 8 13 9 9 6 6 8 12 16 17 18 15 15 13 12 10 10 9 9 8 6 3 3 4 5 4 6 5 5 4 4 6
13 13 5 9 16 15 16 16 15 5 9 14 8 7 12 13 11 11 9 11 12 17 16 16 14 13 11 10 9 10 11 10 8 7 3 4 5 4 3 1 1 3 4 4
14 13 10 14 16 14 16 5 8 11 13 15 8 8 7 7 7 7 2 0 11 17 16 16 15 13 11 10 9 10 11 9 8 8 5 6 6 5 5 5 4 3 4 2
19 3 13 17 15 10 13 7 7 10 13 14 12 11 7 3 8 4 9 4 10 15 15 15 13 13 11 10 10 10 11 9 9 8 7 7 5 1 2 1 4 2 2 3
14 12 12 12 7 13 11 13 9 12 12 13 5 3 8 7 8 4 5 7 9 13 14 13 15 14 13 12 11 11 11 9 10 9 9 7 4 4 5 4 1 5 2 3
13 15 17 13 18 12 15 17 12 12 9 4 8 5 4 10 6 6 7 7 12 11 12 14 15 14 14 13 12 11 11 10 11 11 9 6 7 6 4 1 4 5 4 4
6 15 17 15 15 17 16 17 18 11 11 9 8 11 11 9 9 5 10 10 10 10 11 13 14 14 14 13 12 11 11 10 10 11 9 7 6 4 7 5 2 3 3 4
8 11 11 14 9 9 14 7 13 8 11 12 8 2 8 9 11 10 10 9 9 9 10 11 13 14 12 12 11 10 11 10 10 9 5 3 3 3 5 4 3 6 5 4
16 8 11 11 13 15 12 12 10 15 8 6 6 5 14 9 12 11 8 8 9 9 9 9 11 13 13 12 10 9 10 9 6 13 10 9 4 5 2 4 5 5 5 1
18 9 13 13 15 21 20 16 16 11 12 7 12 2 9 11 8 10 9 7 4 3 7 9 9 12 11 12 12 9 8 8 8 11 10 7 4 9 7 6 6 5 4 3
14 10 12 16 10 8 12 16 10 11 11 12 8 5 10 10 11 8 10 8 6 4 6 7 9 9 10 11 12 10 9 8 9 10 8 9 7 8 8 7 6 6 6 5
7 12 13 12 15 12 19 18 18 16 14 11 13 11 5 8 12 9 9 7 7 5 6 8 8 9 9 12 13 9 10 11 11 11 9 7 10 8 7 6 6 6 6 6
9 12 16 19 18 15 10 15 18 17 18 17 3 17 3 9 11 10 8 7 6 5 6 8 8 10 13 11 13 12 11 12 12 10 9 9 6 7 8 8 7 6 5 5
16 13 15 18 18 20 13 15 7 14 19 22 7 14 5 10 9 9 7 6 5 4 4 5 7 10 14 11 11 11 13 13 12 12 11 6 4 7 7 6 7 6 5 5
11 13 14 17 18 19 18 16 14 11 11 10 11 21 16 14 9 8 6 5 4 3 3 4 6 9 11 11 10 10 11 12 12 11 10 10 7 9 7 6 6 7 6 5
10 12 13 14 16 22 11 19 19 14 15 12 13 11 7 7 9 9 3 5 5 4 1 3 6 8 10 11 11 10 11 11 9 8 9 10 7 4 4 5 4 3 4 4
13 10 12 14 16 12 8 6 11 13 14 9 17 13 14 13 13 10 8 6 5 4 5 5 8 4 10 10 10 11 12 12 11 10 9 9 9 7 7 6 7 5 4 4
11 11 12 11 19 16 14 15 9 11 8 6 1 10 11 12 7 9 9 9 4 3 3 1 5 6 7 9 10 10 10 11 12 10 9 10 9 8 9 8 6 7 6 4
11 10 15 14 13 7 9 10 5 14 5 4 6 10 12 6 7 11 10 8 7 5 2 2 4 3 7 7 9 9 9 10 10 9 9 10 10 9 9 9 4 5 7 6
14 13 14 16 6 7 2 5 9 7 4 5 9 6 10 12 8 6 8 7 5 7 5 4 3 5 7 3 7 8 8 4 4 4 6 8 8 8 9 10 9 10 8 10
4 6 4 9 8 4 8 12 10 5 6 4 7 7 9 10 9 7 6 5 5 5 6 6 7 6 4 5 5 4 5 3 4 5 6 8 6 8 7 9 10 9 8 7
5 3 1 5 9 7 7 11 11 7 6 4 4 6 7 8 6 6 6 5 6 4 4 4 9 6 4 4 4 3 4 3 5 4 4 2 2 1 2 4 4 5 8 7
7 4 4 1 4 3 12 12 8 9 6 5 6 3 5 8 8 6 7 6 5 5 3 4 6 4 4 4 5 4 2 1 3 4 5 5 4 1 3 4 3 1 1 5
8 6 1 5 8 5 8 6 3 5 5 5 7 8 7 9 10 8 7 7 5 5 4 5 5 5 4 3 4 3 3 3 3 4 5 4 4 3 3 3 3 13 7 9
Wind_Direction
201 228 228 236 232 266 323 225 4 56 83 261 265 245 246 151 196 195 183 186 192 188 179 175 182 185 185 182 187 187 164 188 209 253 120 174 207 284 302 242 253 263 212 197
221 230 242 235 312 263 277 275 258 223 203 285 261 241 223 131 195 218 185 187 198 190 175 174 176 185 194 182 182 183 180 178 204 234 67 18 158 201 236 224 230 238 238 204
244 243 218 242 233 255 250 262 257 258 171 244 275 251 182 204 208 191 274 190 190 207 173 180 177 187 191 186 181 170 161 188 198 206 142 128 140 235 220 218 222 221 253 240
245 246 234 237 242 227 254 244 258 255 248 260 202 285 188 190 188 186 231 202 196 193 182 170 177 187 195 181 172 161 167 190 165 173 171 179 179 199 161 241 184 199 225 268
223 237 199 232 228 238 252 292 222 241 262 270 251 239 109 174 229 179 98 15 174 177 183 169 177 175 184 168 170 160 170 187 157 166 189 190 233 178 206 157 190 218 207 302
266 215 227 234 232 244 244 249 244 253 254 256 226 265 275 312 111 131 108 141 157 168 177 170 164 152 169 161 170 160 164 173 163 180 181 221 207 323 108 198 254 272 310 107
216 212 232 248 211 218 231 221 219 218 224 242 69 253 292 93 76 23 90 155 163 156 163 162 155 169 167 166 169 167 171 176 174 187 182 197 213 213 185 214 67 347 309 19
212 200 208 182 236 191 219 240 251 260 266 253 147 226 196 78 110 130 174 180 142 155 159 166 165 173 170 166 171 175 167 177 178 187 181 178 187 198 177 131 12 350 8 34
240 242 185 204 211 251 190 228 259 296 277 283 288 156 150 155 131 139 126 148 138 133 147 155 167 171 168 169 170 169 162 175 184 182 185 192 190 216 71 95 189 119 5 57
270 274 174 180 244 231 274 220 233 234 274 266 275 120 107 163 164 128 136 134 136 149 145 162 168 169 164 165 163 155 159 177 183 185 203 222 168 121 109 113 62 68 73 41
237 241 196 175 202 218 205 246 248 277 302 304 244 232 113 109 120 123 132 140 155 150 154 164 173 159 171 152 149 143 150 171 168 82 78 18 16 41 121 152 106 85 82 139
228 228 255 202 223 223 246 217 232 245 230 264 297 79 151 109 117 137 122 136 131 157 152 160 170 159 162 152 143 129 123 119 119 126 125 143 167 237 146 142 110 104 95 104
218 230 240 251 176 219 251 250 256 245 256 277 273 266 133 125 127 127 137 141 147 147 136 152 159 177 165 119 110 132 138 139 144 148 163 171 200 176 150 135 125 115 121 92
291 239 241 247 228 240 194 235 244 240 250 233 240 131 136 152 141 141 144 153 150 151 148 155 167 179 153 130 125 150 156 150 150 168 173 170 232 133 150 140 142 138 128 122
243 246 250 258 273 288 277 201 223 230 244 241 42 14 117 155 137 139 145 150 160 168 169 150 175 183 128 150 149 161 150 142 156 168 178 196 154 158 151 159 154 146 144 133
222 235 252 257 253 262 248 253 254 213 229 238 209 147 283 321 92 123 142 163 171 159 126 157 179 189 142 164 168 158 155 165 165 174 172 185 147 146 157 175 156 156 149 150
229 237 239 247 242 247 236 248 211 224 234 259 240 130 171 210 120 135 147 152 139 118 129 149 177 187 144 171 162 165 162 167 176 179 173 167 189 163 165 218 170 165 168 161
254 232 252 247 242 240 236 230 234 211 214 199 118 123 124 127 115 106 90 128 111 52 38 153 174 173 163 160 165 163 168 172 183 179 168 164 181 177 175 183 195 175 164 166
242 249 231 248 242 231 192 252 237 228 218 207 118 132 140 135 132 134 124 56 56 43 42 338 336 273 169 154 164 170 174 184 193 175 173 182 184 193 173 173 182 153 163 177
228 236 263 230 251 235 243 171 195 222 219 102 140 146 155 152 215 146 133 128 102 82 74 274 264 241 158 160 171 177 184 187 197 197 186 174 186 200 192 179 188 177 173 187
222 229 228 238 230 144 4 9 269 207 109 132 166 162 150 144 46 113 115 101 79 81 92 76 307 202 150 165 173 187 179 194 202 201 179 183 186 190 209 180 136 175 203 183
200 219 233 231 327 132 75 192 304 66 97 116 115 132 131 99 117 116 93 108 115 104 97 99 104 62 24 189 194 187 193 132 134 154 180 191 189 200 198 187 190 201 219 178
264 1 336 14 80 279 38 75 82 3 79 61 107 110 123 145 148 127 115 117 110 75 101 138 112 89 57 13 321 193 93 153 189 181 200 222 205 213 206 198 187 194 210 199
166 350 357 193 82 83 80 83 79 52 52 45 86 119 144 140 132 141 116 116 109 124 96 79 116 88 82 70 71 81 165 157 206 200 180 169 175 357 10 311 274 209 187 208
54 278 75 89 85 73 67 49 50 68 55 69 86 70 97 120 130 126 122 102 115 102 101 75 79 106 115 113 106 109 108 239 237 211 205 211 211 160 96 68 356 318 157 181
254 51 1 46 22 341 63 43 37 99 86 78 92 91 97 104 113 107 108 117 120 112 124 107 109 112 123 130 129 139 149 174 232 235 239 228 207 151 132 130 96 37 36 106